Weather Roundup
Issued by NWS

Home | Current Version | Previous Version | Text Only | Print | Product List | Glossary On
Versions: 1 2 3 4 5 6 7 8 9 10 11 12 13 14 15 16 17 18 19 20 21 22 23 24 25 26 27 28 29 30 31 32 33 34 35 36 37 38 39 40 41 42 43 44 45 46 47 48 49 50
000
NZUS93 KARX 212110
HRRWXR

CURRENT HOURLY OBSERVATIONS ACROSS
MUCH OF THE UPPER MISSISSIPPI VALLEY
NATIONAL WEATHER SERVICE LA CROSSE WI
300 PM CST TUE NOV 21 2017


...SOUTHEAST MINNESOTA...


CITY           SKY/WX    TMP DP  RH WIND       PRES   REMARKS
ROCHESTER      SUNNY     27  14  58 NW23G32   30.12R WCI  12
ROCHESTER/MAYO FAIR      28  12  51 NW16G30   30.12R WCI  15
WINONA         PTSUNNY   32  16  51 NW15G23   30.13R WCI  22
AUSTIN         SUNNY     28  12  50 NW23G31   30.14  WCI  14
ALBERT LEA     SUNNY     27  10  50 NW16G24   30.17R WCI  14
DODGE CENTER   SUNNY     27  12  54 NW20G28   30.14R WCI  13
PRESTON        SUNNY     27  13  55 NW15G28   30.10R WCI  15
OWATONNA       SUNNY     27  12  54 NW25G31   30.17R WCI  11
FARIBAULT      SUNNY     27  10  50 NW14G23   30.19R WCI  15
$$

...ELSEWHERE IN MINNESOTA...


CITY           SKY/WX    TMP DP  RH WIND       PRES   REMARKS
MINNEAPOLIS    MOSUNNY   29  10  45 NW20G28   30.19R WCI  16
INTNL FALLS    FLURRIES  18   9  68 W10       30.13R WCI   6
DULUTH         MOSUNNY   22   9  57 NW17G28   30.07R WCI   8
RED WING       SUNNY     28   7  40 NW16G23   30.15R WCI  17
REDWOOD FALLS  SUNNY     27   7  42 NW14G31   30.26S WCI  16
MANKATO        SUNNY     27  12  53 NW22G29   30.21R WCI  13
WORTHINGTON    SUNNY     27   9  46 NW22G29   30.24R WCI  13
FAIRMONT       SUNNY     27  11  51 NW22G30   30.22R WCI  13
$$

...SOUTHWEST WISCONSIN...


CITY           SKY/WX    TMP DP  RH WIND       PRES   REMARKS
LA CROSSE      MOSUNNY   33  14  45 NW21G28   30.09R WCI  21
PRAIRIE DU CHI SUNNY     32  11  42 NW16G25   30.09R WCI  21
BOSCOBEL       SUNNY     33  13  43 NW15G24   30.07R WCI  23
LONE ROCK      SUNNY     33  15  47 NW15G25   30.05R WCI  23
PLATTEVILLE    MOSUNNY   32  18  55 NW18G28   30.03R WCI  21
FORT MC COY    SUNNY     31  14  49 NW14G23   30.08R WCI  20
CAMP DOUGLAS   MOSUNNY   30  12  47 NW14G22   30.04R WCI  20
MAUSTON-NEW LI PTCLDY    30  14  50 NW20      30.03R WCI  18
VIROQUA        FAIR      29  16  57 NW17G23   30.04R WCI  17
WIS DELLS      MOSUNNY   30  11  46 NW14G25   30.02R WCI  19
$$

...ELSEWHERE IN WISCONSIN...


CITY           SKY/WX    TMP DP  RH WIND       PRES   REMARKS
MILWAUKEE      CLOUDY    34  17  50 NW16      29.94R WCI  24
MADISON        MOSUNNY   33  15  47 NW15G28   29.99R WCI  23
GREEN BAY      CLOUDY    31  17  56 NW23G31   29.95R WCI  18
EAU CLAIRE     SUNNY     28  10  46 NW16      30.09R WCI  16
BLACK RVR FLS  CLOUDY    31  10  42 NW10G18   30.08R WCI  22
MEDFORD        CLOUDY    24  13  61 NW13G20   30.01R WCI  13
WAUSAU         CLOUDY    26  14  60 NW13G24   29.98R WCI  15
WIS RAPIDS     PTSUNNY   29  13  51 N15G28    30.03R WCI  18
MARSHFIELD     PTSUNNY   26  11  52 NW17      30.00R WCI  13
RICE LAKE      SUNNY     28   9  44 NW12G21   30.11R WCI  18
$$

...NORTHEAST IOWA...


CITY           SKY/WX    TMP DP  RH WIND       PRES   REMARKS
WATERLOO       SUNNY     31  15  52 NW25      30.13R WCI  17
DUBUQUE        SUNNY     32  16  51 NW21G29   30.04R WCI  20
DECORAH        SUNNY     30  14  51 NW18G25   30.09R WCI  18
MASON CITY     SUNNY     29  13  51 NW28G33   30.18R WCI  14
CHARLES CITY   SUNNY     30  16  55 NW17G29   30.14R WCI  18
OELWEIN        SUNNY     30  18  59 NW23G33   30.11R WCI  17
$$

...ELSEWHERE IN IOWA...


CITY           SKY/WX    TMP DP  RH WIND       PRES   REMARKS
DES MOINES     SUNNY     35  15  44 N22G30    30.20R WCI  23
IOWA CITY      SUNNY     35  16  45 NW22G31   30.12R WCI  23
FORT DODGE     SUNNY     31  14  49 NW13G25   30.22R WCI  21
MARSHALLTOWN   SUNNY     33  17  51 NW25G33   30.15R WCI  20
CEDAR RAPIDS   SUNNY     32  16  51 N22G31    30.09R WCI  19
$$

...NORTHERN ILLINOIS...


CITY           SKY/WX    TMP DP  RH WIND       PRES   REMARKS
CHICAGO-OHARE  CLOUDY    37  19  48 NW23      29.95R WCI  26
CHICAGO-MIDWAY CLOUDY    39  22  50 NW20G25   29.95R WCI  29
MOLINE         SUNNY     36  18  48 NW18G28   30.06R WCI  26
ROCKFORD       MOSUNNY   35  17  47 N18G26    30.00R WCI  24
PEORIA         CLOUDY    36  20  52 NW13G25   30.04R WCI  27
$$

NOTE: "FAIR" INDICATES FEW OR NO CLOUDS BELOW 12,000 FEET WITH NO
SIGNIFICANT WEATHER AND/OR OBSTRUCTIONS TO VISIBILITY. WIND
SPEEDS ARE IN MILES-PER-HOUR.




USA.gov is the U.S. government's official web portal to all federal, state and local government web resources and services.